Location: Bratsk-Energetik
(56.3300°N, 101.7600°E)
Time: 21:50:02
(UTC+08:00)

ISS - Pass Details

Date: 10 May 2021
Orbit: 417 x 422 km, 51.6° (Epoch: 13 June)

Event Time Altitude Azimuth Distance (km) Brightness Sun altitude
Exits shadow 02:37:46 28° 201° (SSW) 825 -2.9 -13.8°
Maximum altitude 02:38:38 33° 169° (S) 737 -3.0 -13.8°
Drops below altitude 10° 02:41:43 10° 104° (ESE) 1,509 -0.8 -13.6°
Sets 02:43:56 0° 94° (E) 2,376 0.3 -13.5°
